Weather in Podgora

Croatia     43°13′56″N   17°05′20″E
В апреле 2022 года жителям России запретили посещать сайт meteo.paraplan.net по решению Генеральной прокуратуры. Аудитория сайта уменьшилась в 10 раз. Владельцы сайта не видят смысла в поддержке погодного сервера в таких условиях. Сайт будет закрыт в октябре.
temp.,
°C
wind,
m/s
gust,
m/s
humid.,
%
clouds,
%
prec.,
mm/h
press.,
hPa
HPBL,
m
6 october, thu
thu623:00+17n2257100 0.0 1027160
02:00+17nne1152100 0.0 1027129
05:00+17ese1154100 0.0 1027188
08:00+17ene115694 0.0 1027169
11:00+18sw115291 0.0 1027251
14:00+19wsw2154100 0.0 1026247
17:00+19wsw116581 0.0 1025145
20:00+19nne1165100 0.0 102639
7 october, fri
fri723:00+19nne225685 0.0 102646
02:00+19ne334888 0.0 102557
05:00+18ne3346100 0.0 102453
08:00+19ene2246100 0.0 102476
11:00+20s1046100 0.0 102498
14:00+20sw1145100 0.0 1023156
17:00+19sw1157100 0.0 102280
20:00+19nnw0062100 0.0 102220
8 october, sat
sat823:00+19ne016093 0.0 102113
02:00+19e1159100 0.0 102119
05:00+18ese225867 0.0 102081
08:00+19ese115782 0.0 1020114
11:00+19ssw225675 0.0 1020233
14:00+19s1154100 0.0 1019188
17:00+19ssw115574 0.0 1019114
20:00+18n2260100 0.0 101989
9 october, sun
sun923:00+18n2264100 0.0 102085
02:00+18ne126117 0.0 101974
05:00+18ne336198 0.0 1019100
08:00+17ne44665 0.0 1020126
11:00+20nne225913 0.0 1020180
14:00+21ssw31565 0.0 1020311
17:00+20sw226417 0.0 1019122
20:00+19n23705 0.0 102042
10 october, mon
mon1023:00+19ne33655 0.0 102041
02:00+19ene336312 0.0 102052
05:00+18ene22625 0.0 102165
08:00+18e226295 0.0 102175
11:00+19s115898 0.0 1022195
14:00+19s116398 0.0 1022235
17:00+18se116625 0.0 1021146
20:00+18ese2372100 0.0 1022137